TimeEST,TemperatureF,Dew PointF,Humidity,Sea Level PressureIn,VisibilityMPH,Wind Direction,Wind SpeedMPH,Gust SpeedMPH,PrecipitationIn,Events,Conditions,WindDirDegrees,DateUTC
12:53 AM,30.0,21.0,69,30.37,10.0,Calm,Calm,-,N/A,,Overcast,0,2013-01-07 05:53:00
1:53 AM,28.0,21.0,75,30.37,10.0,Calm,Calm,-,N/A,,Scattered Clouds,0,2013-01-07 06:53:00
2:53 AM,28.0,21.0,75,30.37,10.0,Calm,Calm,-,N/A,,Overcast,0,2013-01-07 07:53:00
3:53 AM,27.0,19.9,75,30.37,10.0,Calm,Calm,-,N/A,,Overcast,0,2013-01-07 08:53:00
4:04 AM,26.6,19.4,74,30.35,10.0,Calm,Calm,-,N/A,,Overcast,0,2013-01-07 09:04:00
4:53 AM,27.0,19.9,75,30.40,10.0,Calm,Calm,-,N/A,,Overcast,0,2013-01-07 09:53:00
5:53 AM,28.0,19.9,72,30.41,10.0,Calm,Calm,-,N/A,,Overcast,0,2013-01-07 10:53:00
6:53 AM,27.0,21.0,78,30.44,10.0,Calm,Calm,-,N/A,,Overcast,0,2013-01-07 11:53:00
7:53 AM,27.0,21.9,81,30.46,10.0,Calm,Calm,-,N/A,,Overcast,0,2013-01-07 12:53:00
8:53 AM,28.0,21.9,78,30.48,9.0,Calm,Calm,-,N/A,,Overcast,0,2013-01-07 13:53:00
9:42 AM,30.2,21.2,69,30.44,10.0,Variable,3.5,-,N/A,,Scattered Clouds,0,2013-01-07 14:42:00
9:53 AM,30.0,21.0,69,30.48,10.0,Variable,3.5,-,N/A,,Partly Cloudy,0,2013-01-07 14:53:00
10:53 AM,33.1,23.0,66,30.47,10.0,Calm,Calm,-,N/A,,Clear,0,2013-01-07 15:53:00
11:53 AM,35.1,21.9,59,30.44,10.0,Variable,3.5,-,N/A,,Clear,0,2013-01-07 16:53:00
12:53 PM,37.0,21.9,54,30.40,10.0,Variable,3.5,-,N/A,,Clear,0,2013-01-07 17:53:00
1:53 PM,39.9,21.9,49,30.38,10.0,Calm,Calm,-,N/A,,Clear,0,2013-01-07 18:53:00
2:53 PM,43.0,23.0,45,30.36,10.0,Calm,Calm,-,N/A,,Clear,0,2013-01-07 19:53:00
3:53 PM,43.0,23.0,45,30.36,10.0,Calm,Calm,-,N/A,,Clear,0,2013-01-07 20:53:00
4:53 PM,42.1,21.9,45,30.36,10.0,Calm,Calm,-,N/A,,Clear,0,2013-01-07 21:53:00
5:53 PM,39.9,21.0,47,30.35,10.0,Calm,Calm,-,N/A,,Clear,0,2013-01-07 22:53:00
6:53 PM,39.0,21.0,49,30.35,10.0,Calm,Calm,-,N/A,,Clear,0,2013-01-07 23:53:00
7:53 PM,37.9,21.0,51,30.33,10.0,Calm,Calm,-,N/A,,Clear,0,2013-01-08 00:53:00
8:53 PM,37.0,21.0,52,30.32,10.0,ESE,3.5,-,N/A,,Clear,110,2013-01-08 01:53:00
9:53 PM,36.0,21.0,55,30.31,10.0,SSE,3.5,-,N/A,,Clear,150,2013-01-08 02:53:00
10:53 PM,36.0,21.9,57,30.27,10.0,SE,5.8,-,N/A,,Clear,130,2013-01-08 03:53:00
11:53 PM,33.1,21.9,64,30.30,10.0,SSW,3.5,-,N/A,,Clear,200,2013-01-08 04:53:00